Location: Mattawa
(46.3175°N, 78.7022°W)
Time: 06:11:50
(UTC-05:00)

ISS - Visible Passes

Search period start: 23 November 2017 00:00
Search period end: 03 December 2017 00:00
Orbit: 402 x 407 km, 51.6° (Epoch: 23 November)

Date Brightness Start Highest point End Pass type
(mag) Time Alt. Az. Time Alt. Az. Time Alt. Az.
26 Nov -1.5 18:34:54 10° S 18:35:51 15° S 18:35:51 15° S visible
27 Nov -1.5 17:44:01 10° SSE 17:45:19 12° SE 17:45:56 11° ESE visible
27 Nov -0.8 19:18:01 10° SW 19:18:37 15° SW 19:18:37 15° SW visible
28 Nov -3.0 18:25:53 10° SW 18:28:36 40° SSE 18:28:36 40° SSE visible
29 Nov -2.3 17:34:02 10° SSW 17:36:46 25° SE 17:38:31 16° E visible
29 Nov -1.3 19:09:47 10° WSW 19:11:10 23° W 19:11:10 23° W visible
30 Nov -4.0 18:17:22 10° WSW 18:20:39 86° SSE 18:21:00 69° ENE visible
01 Dec -3.4 17:25:08 10° SW 17:28:19 51° SSE 17:30:46 16° ENE visible
01 Dec -1.6 19:01:44 10° W 19:03:25 25° WNW 19:03:25 25° WNW visible
02 Dec -3.4 18:09:09 10° W 18:12:23 54° NNW 18:13:08 42° NNE visible
